McGuire AFB, NJ

3:50 PM EDT on April 30, 2017 (GMT -0400)
McGuire Air Force Base

Weather History for KWRI - February, 2013

Change the Weather History Date:

Thursday, February 7, 2013

  Actual Average Record
Temperature  
Mean Temperature 28 °F -  
Max Temperature 35 °F 41 °F 66 °F (2008)
Min Temperature 21 °F 23 °F 10 °F (2007)
Degree Days  
Heating Degree Days 37    
Moisture  
Dew Point 17 °F    
Average Humidity 61    
Maximum Humidity 79    
Minimum Humidity 45    
Precipitation  
Precipitation 0.00 in - - ()
Sea Level Pressure  
Sea Level Pressure 30.40 in    
Wind  
Wind Speed 4 mph (NE)    
Max Wind Speed 12 mph    
Max Gust Speed -    
Visibility 10 miles    
Events      
Averages and records for this station are not official NWS values.
T = Trace of Precipitation, MM = Missing Value Source: NWS Daily Summary

Daily Weather History Graph

Daily Weather History Graph

Search for Another Location

Airport or City:

Trip Planner

Search our weather history database for the weather conditions in past years. The results will help you decide how hot, cold, wet, or windy it might be!

Date:

Astronomy

Feb. 07, 2013 Rise Set
Actual Time 7:00 AM EST 5:25 PM EST
Civil Twilight 6:32 AM EST 5:53 PM EST
Nautical Twilight 6:00 AM EST 6:25 PM EST
Astronomical Twilight 5:28 AM EST 6:56 PM EST
Moon 4:37 AM EST (2/7) 2:46 PM EST (2/7)
Length of Visible Light 11h 20m
Length of Day
10h 24m
Waning Crescent, 9% of the Moon is Illuminated
Feb 7
Waning Crescent
Feb 10
New
Feb 17
First Quarter
Feb 25
Full
Mar 4
Last Quarter

Hourly Weather History & Observations

Time (EST) Temp. Windchill Dew Point Humidity Pressure Visibility Wind Dir Wind Speed Gust Speed Precip Events Conditions
12:55 AM 24.4 °F 20.1 °F 15.3 °F 68% 30.35 in 10.0 mi North 3.5 mph - N/A   Clear
1:55 AM 21.4 °F - 13.5 °F 72% 30.36 in 10.0 mi Calm Calm - N/A   Clear
2:55 AM 23.5 °F 19.1 °F 13.5 °F 65% 30.39 in 10.0 mi NW 3.5 mph - N/A   Mostly Cloudy
3:55 AM 23.0 °F - 16.9 °F 77% 30.41 in 10.0 mi Calm Calm - N/A   Scattered Clouds
4:55 AM 22.1 °F - 14.5 °F 73% 30.41 in 10.0 mi Calm Calm - N/A   Clear
5:55 AM 21.6 °F 16.8 °F 16.0 °F 79% 30.42 in 10.0 mi North 3.5 mph - N/A   Mostly Cloudy
6:55 AM 23.7 °F 15.6 °F 15.4 °F 71% 30.44 in 10.0 mi NNW 6.9 mph - N/A   Mostly Cloudy
7:55 AM 24.8 °F 16.9 °F 14.7 °F 66% 30.47 in 10.0 mi NNW 6.9 mph - N/A   Overcast
8:55 AM 27.0 °F 19.5 °F 12.6 °F 55% 30.48 in 10.0 mi North 6.9 mph - N/A   Partly Cloudy
9:55 AM 28.9 °F 23.9 °F 12.0 °F 49% 30.48 in 10.0 mi NE 4.6 mph - N/A   Partly Cloudy
10:55 AM 31.6 °F - 13.1 °F 46% 30.48 in 10.0 mi Calm Calm - N/A   Overcast
11:55 AM 34.9 °F 29.0 °F 15.3 °F 45% 30.47 in 10.0 mi ENE 6.9 mph - N/A   Mostly Cloudy
12:55 PM 35.2 °F 31.2 °F 15.6 °F 45% 30.43 in 10.0 mi ESE 4.6 mph - N/A   Mostly Cloudy
1:55 PM 35.1 °F 26.9 °F 18.7 °F 51% 30.40 in 10.0 mi East 11.5 mph - N/A   Mostly Cloudy
2:55 PM 33.1 °F 24.9 °F 18.7 °F 56% 30.40 in 10.0 mi ENE 10.4 mph - N/A   Mostly Cloudy
3:55 PM 32.2 °F 24.4 °F 18.1 °F 56% 30.39 in 10.0 mi East 9.2 mph - N/A   Mostly Cloudy
4:55 PM 31.5 °F 23.5 °F 17.6 °F 57% 30.38 in 10.0 mi ENE 9.2 mph - N/A   Mostly Cloudy
5:55 PM 30.0 °F 22.4 °F 17.1 °F 59% 30.38 in 10.0 mi NE 8.1 mph - N/A   Overcast
6:55 PM 29.8 °F 23.9 °F 16.9 °F 59% 30.39 in 10.0 mi NE 5.8 mph - N/A   Overcast
7:55 PM 30.4 °F 23.6 °F 17.6 °F 59% 30.37 in 10.0 mi NNE 6.9 mph - N/A   Overcast
8:55 PM 31.5 °F 25.8 °F 18.9 °F 60% 30.36 in 10.0 mi NNE 5.8 mph - N/A   Overcast
9:55 PM 32.0 °F 26.4 °F 21.0 °F 64% 30.33 in 10.0 mi NNE 5.8 mph - N/A   Overcast
10:55 PM 33.1 °F 27.7 °F 23.2 °F 67% 30.29 in 10.0 mi NNE 5.8 mph - N/A   Overcast
11:55 PM 33.4 °F 28.1 °F 25.5 °F 73% 30.27 in 10.0 mi NNE 5.8 mph - N/A   Overcast